TimeMST,TemperatureF,Dew PointF,Humidity,Sea Level PressureIn,VisibilityMPH,Wind Direction,Wind SpeedMPH,Gust SpeedMPH,PrecipitationIn,Events,Conditions,WindDirDegrees,DateUTC
12:56 AM,30.9,25.0,79,30.13,10.0,Calm,Calm,-,N/A,,Overcast,0,2013-02-13 07:56:00
1:56 AM,35.1,21.9,59,30.09,10.0,Calm,Calm,-,N/A,,Overcast,0,2013-02-13 08:56:00
2:56 AM,37.0,23.0,57,30.08,10.0,WSW,9.2,-,N/A,,Overcast,240,2013-02-13 09:56:00
3:56 AM,36.0,23.0,59,30.07,10.0,NNE,5.8,-,N/A,,Overcast,20,2013-02-13 10:56:00
4:56 AM,37.9,23.0,55,30.06,10.0,WSW,8.1,-,N/A,,Overcast,240,2013-02-13 11:56:00
5:56 AM,39.0,23.0,53,30.02,10.0,SW,10.4,-,N/A,,Overcast,230,2013-02-13 12:56:00
6:56 AM,37.0,24.1,59,30.03,10.0,SSE,5.8,-,N/A,,Overcast,160,2013-02-13 13:56:00
7:56 AM,39.0,23.0,53,30.01,10.0,Calm,Calm,-,N/A,,Overcast,0,2013-02-13 14:56:00
8:56 AM,39.9,23.0,51,29.99,10.0,WSW,13.8,-,N/A,,Overcast,250,2013-02-13 15:56:00
9:56 AM,41.0,23.0,49,30.03,10.0,West,15.0,20.7,N/A,,Overcast,260,2013-02-13 16:56:00
10:56 AM,41.0,24.1,51,30.02,10.0,West,11.5,-,N/A,,Overcast,270,2013-02-13 17:56:00
11:56 AM,41.0,21.9,47,30.04,10.0,West,17.3,-,N/A,,Overcast,280,2013-02-13 18:56:00
12:56 PM,39.0,24.1,55,30.06,10.0,WNW,10.4,-,N/A,,Mostly Cloudy,300,2013-02-13 19:56:00
1:56 PM,39.9,24.1,53,30.03,10.0,WNW,13.8,-,N/A,,Mostly Cloudy,300,2013-02-13 20:56:00
2:56 PM,39.0,21.9,50,30.02,10.0,NW,19.6,-,N/A,,Partly Cloudy,310,2013-02-13 21:56:00
3:56 PM,37.9,21.9,53,30.03,10.0,NW,17.3,-,N/A,,Clear,310,2013-02-13 22:56:00
4:56 PM,37.0,23.0,57,30.04,10.0,NW,12.7,-,N/A,,Partly Cloudy,310,2013-02-13 23:56:00
5:56 PM,36.0,21.9,57,30.07,10.0,Calm,Calm,-,N/A,,Clear,0,2013-02-14 00:56:00
6:56 PM,36.0,21.0,55,30.09,10.0,Calm,Calm,-,N/A,,Mostly Cloudy,0,2013-02-14 01:56:00
7:56 PM,37.0,19.9,50,30.11,10.0,Calm,Calm,-,N/A,,Overcast,0,2013-02-14 02:56:00
8:56 PM,36.0,21.0,55,30.12,10.0,Calm,Calm,-,N/A,,Overcast,0,2013-02-14 03:56:00
9:56 PM,36.0,19.0,50,30.13,10.0,NW,5.8,-,N/A,,Overcast,310,2013-02-14 04:56:00
10:56 PM,35.1,21.0,57,30.15,10.0,WSW,4.6,-,N/A,,Overcast,240,2013-02-14 05:56:00
11:56 PM,35.1,21.0,57,30.17,10.0,West,6.9,-,N/A,,Overcast,260,2013-02-14 06:56:00